Theta_e
343 341 341 341 339 339 338 337 336 335 334 332 331 330 330 330 331 330 328 325 322 320 320 324 328 328 327 326 324 326 329 329 329 327 323 319 317 316 317 316 314 314 314 315 317 317 314 311 310 310 310 310 311 312 313 313 312 310 312 316 318 319 317 316 318 316 315 320 323 326 329 329 329 330 329 328 328 327 326 326 328 331 334 335 335
340 339 339 339 338 338 337 337 336 335 334 333 331 330 330 331 331 330 329 326 323 321 319 320 325 327 326 325 322 323 325 326 326 325 321 317 315 315 317 316 315 314 314 316 320 324 319 310 310 310 310 312 313 313 313 314 313 313 315 320 321 322 321 319 321 318 314 314 319 325 328 329 330 329 329 328 329 328 327 327 329 332 334 335 336
336 336 336 336 336 337 337 337 336 336 334 333 331 330 330 331 331 331 330 327 323 322 320 318 320 322 322 322 320 320 322 325 324 322 320 316 315 316 317 315 315 314 315 316 321 329 321 310 310 311 314 316 316 317 317 317 317 318 321 323 321 320 321 323 325 323 318 314 315 320 325 329 330 329 329 328 329 329 328 329 330 332 334 335 336
333 333 333 334 335 336 336 337 336 336 335 333 332 331 331 331 331 331 331 329 325 322 321 318 316 317 317 318 318 319 321 325 326 324 321 317 316 316 317 316 315 314 315 315 320 325 316 310 313 315 319 320 322 323 324 323 322 324 326 326 323 322 324 326 327 327 324 319 313 315 321 325 328 329 329 329 330 330 329 330 330 332 334 336 336
331 331 332 334 335 336 336 337 337 336 335 334 332 331 331 331 331 332 331 330 327 322 321 319 316 316 316 317 318 318 319 321 329 332 327 320 322 322 318 315 315 314 314 314 316 318 313 313 316 318 321 324 326 327 327 329 328 329 329 329 329 328 328 328 328 328 327 323 315 313 318 320 324 327 328 328 330 330 330 330 330 331 333 335 336
330 330 332 334 335 336 336 337 337 336 336 334 333 331 331 331 331 331 332 331 328 323 321 319 316 316 316 318 319 318 318 317 323 329 327 325 331 332 324 317 316 315 314 313 313 314 313 315 317 320 324 327 328 329 329 330 331 332 332 331 331 329 330 330 328 327 327 326 319 312 315 318 321 325 327 326 326 328 328 328 328 329 331 333 334
330 329 331 333 335 336 336 337 336 336 336 334 333 332 331 330 331 331 332 331 327 323 321 319 317 317 316 317 319 322 325 321 319 321 324 329 333 334 329 322 320 317 315 314 313 313 314 316 319 323 326 328 329 331 331 331 331 332 332 331 330 328 330 330 328 328 327 327 322 312 311 319 323 325 325 325 325 325 325 325 325 326 328 331 332
330 330 331 332 335 336 336 337 336 337 336 335 334 332 332 330 331 331 332 331 326 321 319 318 316 319 320 318 319 326 330 325 320 320 324 330 332 333 331 327 325 321 316 314 313 313 315 318 322 325 326 328 329 331 331 332 332 332 331 327 327 327 328 329 329 328 325 324 321 312 309 316 322 324 322 322 325 325 323 322 322 323 323 326 328
331 330 330 332 334 335 336 336 337 337 337 336 334 333 333 331 331 331 333 331 324 318 318 317 316 318 323 324 324 329 329 325 323 323 323 326 328 329 328 327 326 322 317 314 313 314 315 318 322 325 326 328 329 331 331 332 332 332 329 325 327 328 328 329 330 327 324 324 318 311 309 313 317 319 318 319 324 323 319 318 319 319 318 321 322
331 330 329 331 332 335 336 336 337 337 337 336 335 333 333 332 332 331 333 330 321 316 317 317 317 317 322 327 329 331 330 329 330 330 328 327 325 325 324 323 320 320 318 316 314 314 315 318 323 326 328 329 330 331 331 331 331 331 327 326 327 328 328 329 329 326 326 325 317 311 308 311 313 315 318 319 323 320 316 316 317 316 315 316 317
331 330 329 330 331 333 335 336 337 337 337 337 336 334 333 333 332 332 333 329 318 316 317 317 320 320 321 326 329 330 332 333 333 332 330 329 328 325 322 319 317 317 317 317 315 313 316 320 324 328 330 331 331 331 330 330 331 330 326 326 328 328 329 328 328 328 327 322 315 311 308 309 312 315 319 320 321 321 318 316 316 314 313 313 313
331 330 329 329 329 331 334 336 336 337 337 337 337 336 334 333 333 333 333 326 316 317 318 318 323 324 323 326 327 329 330 332 331 330 329 327 324 321 318 317 316 315 315 317 316 314 315 320 324 328 330 330 330 329 329 330 331 331 328 328 329 329 329 328 328 329 326 321 317 312 308 308 310 315 316 315 317 320 318 316 314 312 311 311 311
331 329 328 327 328 330 333 335 337 337 337 337 337 336 334 333 333 334 331 321 316 319 319 321 324 326 326 326 326 325 326 326 326 324 323 321 318 317 317 316 315 314 314 316 317 315 315 318 323 328 330 330 329 329 330 332 332 331 329 328 329 329 328 327 329 330 326 323 320 314 309 308 308 312 313 311 312 314 313 312 310 310 310 311 311
330 328 326 325 326 328 331 334 337 337 337 337 337 337 335 333 334 333 326 317 318 322 322 324 327 328 326 324 323 322 321 321 321 321 320 321 321 320 320 319 317 315 314 315 317 316 315 317 322 327 329 330 330 331 332 333 333 332 330 329 329 328 328 328 329 330 329 327 323 316 312 309 307 309 310 311 310 310 310 309 309 309 309 309 309
331 328 325 324 324 326 330 333 335 336 336 337 336 337 335 333 334 329 319 317 321 324 325 328 330 330 328 326 325 324 323 324 325 324 324 326 326 324 324 324 322 319 316 315 316 317 316 317 322 326 329 331 332 332 333 333 333 332 331 329 329 328 328 329 329 330 330 329 325 319 313 309 308 308 308 309 309 310 310 309 309 308 308 307 307
332 328 324 323 323 326 330 332 335 336 336 336 336 336 334 334 332 323 317 320 324 325 328 330 331 332 331 332 331 330 330 331 331 330 329 329 327 325 324 324 324 323 320 317 317 317 317 318 321 325 329 331 332 333 333 333 333 332 331 330 329 329 330 329 330 331 331 330 328 321 315 311 309 308 308 308 309 309 309 309 309 308 308 308 307
332 329 326 324 325 328 330 332 335 335 335 335 334 334 334 333 327 319 319 324 325 327 330 331 331 331 332 333 334 333 334 334 333 333 332 330 327 325 324 324 324 323 322 320 319 317 317 317 321 325 329 331 333 333 333 333 333 333 332 331 330 329 330 330 330 332 332 330 327 322 317 313 309 309 308 307 308 309 309 309 309 309 309 308 308
333 330 328 328 327 329 331 333 335 334 334 334 334 334 333 330 323 319 323 325 326 328 330 331 331 331 332 333 333 333 334 334 333 333 332 329 327 326 325 324 323 322 321 320 320 319 318 317 319 324 329 332 333 333 334 334 333 333 332 331 331 330 330 331 331 332 331 329 325 321 318 315 310 309 309 307 307 308 308 308 308 309 309 309 308
333 330 328 328 327 330 333 333 333 333 333 333 334 333 332 328 321 321 325 326 327 329 330 330 330 331 333 333 333 334 334 334 334 333 330 328 327 328 327 324 322 321 321 320 320 319 319 318 317 321 326 331 333 333 334 334 334 333 332 332 331 331 332 332 332 331 330 328 325 319 317 316 312 309 309 308 307 307 308 308 309 308 308 308 308
334 331 329 329 328 331 334 333 331 331 332 333 334 333 332 326 321 323 326 327 329 330 330 330 330 331 332 333 334 334 334 334 333 332 330 328 327 328 326 324 322 323 323 322 321 320 320 319 317 317 322 329 333 333 334 334 334 333 333 332 332 332 332 332 331 330 329 328 324 319 317 317 315 311 309 309 308 307 307 307 308 308 308 308 308
334 332 330 331 331 331 333 333 331 330 332 332 332 332 329 323 322 326 328 329 330 331 330 329 330 331 332 333 333 332 332 333 332 331 329 328 327 327 325 324 323 324 324 324 323 322 321 320 318 317 319 325 329 331 333 333 333 334 333 333 332 332 332 331 331 330 330 329 324 320 318 317 316 313 310 310 309 307 307 307 307 307 307 308 308
333 333 332 332 332 331 332 333 330 330 331 331 331 329 325 323 325 328 330 331 331 331 329 328 329 331 331 331 330 330 330 330 330 329 328 327 327 326 325 324 323 324 324 323 322 322 322 321 319 318 317 320 324 328 331 332 333 334 333 333 332 332 331 331 331 330 330 328 324 322 320 317 317 315 313 311 309 308 307 306 306 306 306 307 307
334 334 334 333 332 332 332 330 329 329 330 330 329 326 324 326 328 329 331 331 331 330 327 326 327 328 328 328 327 327 328 328 329 328 327 326 325 325 324 323 322 322 322 322 321 321 322 321 320 319 317 316 320 326 328 330 334 334 333 332 332 331 330 330 330 330 330 328 325 326 324 319 316 316 315 313 311 309 308 307 307 306 306 306 306
335 334 335 334 333 333 331 328 328 329 329 329 328 325 325 328 329 330 331 331 331 328 326 326 327 326 326 326 326 327 327 328 328 327 326 326 325 324 323 322 322 321 321 320 320 320 320 321 321 319 318 316 317 322 325 329 334 334 333 332 331 331 330 330 330 330 330 328 327 329 326 320 317 316 316 316 313 309 309 308 307 306 306 306 306
335 334 335 334 334 334 332 328 326 326 327 328 327 326 327 328 329 331 332 331 330 327 326 326 326 326 326 326 326 326 327 328 328 327 327 326 325 324 323 322 321 320 320 320 320 320 319 320 320 319 319 317 318 322 325 330 333 333 333 331 331 331 330 329 330 330 329 329 329 329 326 321 318 317 316 317 315 310 308 309 307 307 306 306 306
335 335 335 334 334 334 333 330 326 325 326 327 327 327 328 329 330 331 332 331 329 326 325 326 326 326 326 326 326 327 327 328 329 329 328 327 325 325 325 323 322 323 323 321 320 320 320 320 320 319 319 319 322 324 327 331 333 333 332 331 331 331 330 329 329 330 329 329 330 328 324 321 318 317 316 317 317 312 309 309 308 307 307 306 306
335 335 335 335 335 334 334 331 328 327 327 327 328 329 329 330 331 332 332 331 328 325 325 326 325 327 327 326 327 326 326 328 329 329 328 328 326 326 327 327 325 326 327 325 324 322 321 322 321 321 321 321 323 325 327 331 332 332 332 331 331 331 330 330 330 330 330 330 329 326 323 321 318 318 316 316 317 315 311 310 309 307 307 306 306
335 335 335 335 335 335 334 331 331 331 330 330 330 330 331 331 332 332 331 330 327 324 324 325 325 327 327 326 326 324 325 328 329 328 328 328 327 327 329 329 327 326 327 327 327 327 325 324 324 324 325 324 324 324 326 329 330 331 332 331 330 330 331 331 331 330 330 330 328 325 323 321 319 317 316 316 319 318 314 311 309 308 307 307 306
336 335 335 335 335 335 334 333 333 334 334 332 332 332 332 332 332 332 331 328 325 324 324 325 326 327 326 325 324 324 326 328 328 328 327 327 326 327 328 328 327 325 325 326 327 328 328 326 326 326 327 327 325 325 325 326 327 328 330 330 329 329 330 331 331 331 331 330 328 326 324 321 319 317 315 316 322 322 317 312 309 308 308 307 307
336 336 335 336 336 335 334 334 334 335 335 334 333 333 333 333 333 332 330 327 325 325 326 326 327 326 325 325 324 324 326 327 327 327 327 326 325 327 327 326 326 325 325 326 326 326 328 328 327 326 328 328 327 327 327 327 327 326 327 327 328 328 329 331 331 331 331 330 329 327 324 321 319 316 315 318 323 324 319 316 312 308 309 308 307
337 336 336 336 336 335 335 335 335 335 335 335 334 334 333 333 333 332 329 327 325 325 327 328 327 326 325 325 324 324 325 325 326 327 326 325 325 326 327 326 326 326 325 326 326 326 327 328 328 326 326 328 328 327 328 328 328 328 327 328 329 329 329 330 331 331 331 330 329 327 324 321 319 316 315 316 320 322 320 320 316 309 309 309 307
338 338 337 337 337 337 336 335 335 335 335 335 335 334 333 333 332 331 328 327 326 326 327 327 327 326 325 325 326 325 325 325 326 326 326 326 325 325 327 326 326 327 327 326 326 326 326 326 327 326 326 327 328 328 327 328 328 328 328 328 329 329 330 330 331 331 331 331 328 326 323 321 319 315 314 314 317 320 319 319 319 314 312 310 307
339 340 339 338 338 337 336 335 334 334 335 335 335 334 333 333 332 330 327 326 327 326 327 326 327 328 326 326 327 327 326 326 326 326 327 327 326 325 326 326 325 326 326 326 326 326 325 324 325 326 326 327 328 327 328 328 328 328 328 327 328 328 329 330 331 331 331 330 327 325 324 321 319 315 314 314 315 319 317 316 321 322 319 312 306
340 339 339 338 338 337 335 334 334 335 335 335 335 334 333 332 330 329 326 325 326 326 327 327 327 327 326 328 328 328 328 327 326 327 327 328 327 327 326 325 325 325 325 326 326 325 325 324 325 326 327 327 328 328 327 327 328 328 328 327 327 327 328 330 331 331 330 329 327 325 324 321 319 316 314 315 317 319 318 317 320 323 321 316 312
340 338 337 338 337 335 335 334 334 335 335 335 334 332 332 331 329 328 326 326 325 325 326 327 327 326 326 329 329 329 329 327 326 327 328 328 328 328 327 326 325 326 325 326 325 325 326 325 325 326 327 328 328 328 327 327 327 327 327 327 326 327 329 330 330 330 329 328 327 325 324 322 320 318 317 318 320 322 321 318 318 318 318 319 319
338 337 337 337 336 334 334 334 334 335 335 334 334 332 332 330 328 327 326 326 325 325 326 327 328 328 328 329 329 328 328 327 327 327 328 329 329 328 327 326 326 325 325 326 325 325 326 326 326 326 327 328 328 328 327 326 327 327 327 326 326 327 329 330 329 329 328 327 326 325 324 324 323 321 320 321 322 323 323 321 320 319 319 321 323
339 338 337 335 335 334 334 334 334 334 333 333 333 333 331 329 327 327 327 326 326 326 327 328 329 328 328 328 327 326 326 327 328 329 330 329 329 329 327 326 327 326 326 327 326 326 326 325 325 325 327 328 328 327 326 325 326 326 327 327 325 326 328 329 329 329 328 326 326 326 326 326 325 324 324 325 325 325 326 324 324 323 323 324 325
339 338 337 335 334 334 334 335 335 334 333 333 333 332 330 328 328 328 327 327 328 328 328 329 328 327 328 328 327 327 328 329 329 329 329 329 329 329 328 327 328 328 327 327 326 327 327 324 325 326 326 328 327 327 326 326 326 326 326 326 325 326 327 328 329 329 328 326 326 327 327 327 327 326 326 327 327 327 327 327 326 326 327 327 327
339 338 335 335 335 334 334 334 334 333 332 332 332 331 330 328 328 328 328 329 328 328 328 328 328 327 328 329 329 329 328 327 327 327 327 328 329 329 328 327 328 328 327 327 327 327 327 324 325 326 326 327 327 327 327 326 327 327 326 326 325 325 327 328 328 328 327 326 326 327 328 328 327 327 327 327 327 327 327 327 327 327 327 327 327
335 336 335 336 335 333 333 334 333 332 331 331 331 331 330 329 328 328 329 328 328 327 327 327 327 328 329 329 328 327 326 326 326 327 327 327 328 328 328 327 328 328 327 327 327 328 327 324 325 327 326 327 327 327 326 326 326 326 326 326 325 325 327 328 328 329 328 327 328 328 328 328 327 327 327 327 326 326 326 326 326 326 326 326 327
327 333 334 334 334 333 333 333 333 332 330 330 331 330 330 329 328 328 328 327 326 327 326 326 327 328 328 328 327 325 326 327 327 327 327 327 327 328 328 328 328 327 326 326 327 327 326 324 324 326 326 326 326 326 325 325 326 326 326 327 326 326 328 329 329 329 328 327 328 328 328 327 327 327 327 326 326 326 326 325 326 326 326 326 326
325 329 330 330 332 333 333 332 332 331 330 330 330 330 329 328 327 327 326 325 326 326 325 325 326 326 327 327 326 326 326 327 327 327 327 328 328 328 327 327 326 326 325 325 325 325 324 324 324 325 326 326 326 326 325 325 326 325 326 326 327 327 328 328 328 328 327 326 328 327 326 326 327 327 326 326 325 326 326 326 325 326 326 326 325
331 331 328 329 331 332 332 331 331 330 330 329 330 330 328 327 326 325 324 325 326 325 324 325 324 324 325 325 325 326 327 327 327 326 327 327 327 327 327 326 325 324 323 325 325 324 323 324 324 324 325 325 325 325 325 325 326 326 325 325 326 327 328 327 327 327 326 327 327 326 325 326 327 327 326 324 325 326 326 325 325 326 326 325 325
332 332 329 328 330 330 330 331 330 329 329 329 329 329 327 326 326 326 326 326 324 324 325 325 324 324 324 324 324 324 326 326 326 326 326 326 326 326 327 327 326 325 324 324 325 324 324 324 323 323 324 324 324 324 325 326 326 326 326 325 326 327 327 327 327 327 326 326 326 326 326 326 327 327 326 324 324 325 325 325 326 325 325 325 325
330 331 329 327 328 329 330 331 330 329 329 329 329 328 325 324 325 326 326 325 325 324 324 324 324 325 324 322 322 323 324 324 324 325 325 325 325 325 326 327 327 326 325 325 325 325 324 324 323 323 323 323 323 324 325 326 327 327 326 325 326 327 326 326 327 327 326 326 326 326 327 327 327 327 326 325 325 325 325 325 325 324 325 325 322
329 329 329 329 328 329 330 331 330 329 329 329 329 326 323 323 325 326 324 323 324 323 321 320 320 322 322 321 323 324 323 322 322 323 324 324 325 324 325 326 326 326 326 326 326 326 325 324 324 323 323 323 323 324 325 326 327 327 326 325 325 326 326 325 326 326 326 326 326 326 327 326 326 326 326 325 324 324 324 324 324 325 324 321 317
328 330 331 332 331 331 330 331 330 329 328 328 328 326 323 324 325 323 321 321 322 319 318 318 317 317 318 320 323 324 323 322 321 320 319 319 322 323 323 324 325 325 325 325 325 326 326 326 325 324 324 324 324 323 324 325 326 326 326 326 325 326 326 325 325 325 326 326 326 326 326 326 326 325 324 323 322 321 322 322 323 323 321 316 315
328 331 333 333 332 332 331 330 329 328 328 327 327 326 324 324 323 321 320 320 319 316 316 318 317 316 317 319 321 322 324 324 323 321 316 314 318 320 320 322 324 324 324 324 324 325 326 326 325 325 325 325 324 324 324 325 326 326 326 326 326 326 326 325 325 324 325 326 326 326 325 325 324 323 321 319 318 318 318 318 319 318 316 315 316
327 331 333 332 332 332 332 330 329 329 328 325 325 326 325 323 321 320 319 319 320 317 316 318 317 315 316 317 319 321 323 324 324 323 318 316 317 317 317 319 321 322 323 324 324 324 325 325 324 324 324 324 324 325 325 325 325 326 326 326 326 326 326 326 325 324 324 325 325 324 325 324 323 322 320 318 316 316 316 316 316 316 315 315 316
327 329 331 331 332 332 332 329 328 329 326 322 324 325 325 323 321 320 319 321 323 318 316 318 316 314 315 315 317 319 321 322 322 322 320 318 317 317 318 318 318 318 320 323 324 324 324 325 325 325 325 325 325 325 325 326 326 326 326 326 326 326 326 326 325 325 324 324 324 323 324 323 322 322 320 318 316 315 314 314 314 315 314 314 314
327 330 331 331 333 333 331 329 328 328 325 322 323 324 324 324 323 323 323 324 323 316 314 316 314 313 314 313 314 316 318 321 322 321 321 319 317 316 318 318 317 316 318 321 322 323 324 326 326 326 325 325 325 325 325 326 327 326 325 325 326 326 325 325 325 325 324 324 323 323 323 323 322 321 320 318 316 313 311 310 310 311 311 310 310
Wind_Speed
28 28 26 28 27 26 25 25 26 26 25 24 23 22 21 20 19 18 18 18 18 18 17 18 18 18 18 19 19 19 18 16 15 13 12 11 11 11 10 10 11 12 12 11 10 12 14 14 14 16 16 17 17 17 17 17 17 18 19 20 21 21 23 27 28 25 22 18 17 18 17 18 19 19 19 20 21 21 20 19 18 17 18 18 18
30 29 27 28 27 27 26 26 27 26 25 24 23 22 21 20 19 18 18 18 17 17 17 16 17 18 17 18 18 18 18 17 16 14 13 12 12 11 11 12 12 13 12 12 13 15 16 16 17 17 17 17 17 16 16 16 16 17 19 20 21 21 22 25 27 26 24 21 17 17 19 19 19 19 19 18 20 21 20 19 18 17 18 18 19
30 30 28 29 27 27 27 27 27 26 25 24 23 22 21 20 19 18 17 17 17 17 16 15 16 17 17 17 18 18 18 18 16 15 14 13 13 12 12 13 13 14 13 13 14 16 18 18 18 18 18 17 17 16 15 14 15 16 18 19 21 21 22 23 25 26 24 22 18 18 20 18 18 19 19 18 18 19 19 18 16 16 17 18 19
29 30 29 29 28 28 27 27 27 26 24 24 23 22 21 20 19 18 17 16 16 16 15 15 15 17 18 18 19 19 20 19 17 15 15 14 13 13 13 13 14 14 14 14 15 17 20 20 19 19 19 18 17 17 16 15 15 16 17 17 19 21 20 21 23 25 24 22 20 18 19 18 19 18 19 19 18 18 18 17 15 15 16 17 18
29 29 30 29 29 28 28 28 27 26 24 23 23 22 21 20 19 18 17 15 15 15 15 14 14 17 19 20 20 20 20 20 19 16 15 14 13 12 13 13 14 14 15 16 17 20 22 21 20 19 19 19 18 17 16 15 15 15 15 16 16 16 17 19 21 23 23 22 19 17 18 18 18 17 18 18 17 17 16 16 15 15 15 16 17
29 30 30 29 29 28 28 28 27 26 25 23 22 21 20 19 18 17 16 14 14 14 14 14 15 17 19 20 21 20 19 19 20 18 17 17 15 12 12 13 12 13 16 17 18 21 21 21 20 19 19 18 18 17 16 15 15 14 14 14 13 14 14 14 18 22 22 21 19 16 16 17 18 16 15 16 17 16 15 16 15 14 14 15 15
29 29 29 29 28 28 27 27 27 26 24 23 21 20 19 18 17 16 15 13 12 13 14 14 16 17 19 20 20 19 17 17 18 19 19 19 18 15 12 11 11 12 14 17 18 20 20 20 21 20 19 18 18 17 15 14 14 13 13 13 13 15 15 13 17 21 21 21 19 15 14 16 19 15 13 15 15 14 14 15 15 14 14 13 13
29 29 28 29 28 27 27 27 26 25 24 22 21 19 18 17 16 15 14 12 11 12 13 14 16 18 19 19 19 19 16 16 17 17 19 19 17 15 13 11 11 11 13 17 18 19 20 21 21 20 19 18 17 16 15 14 13 12 12 14 15 17 17 15 17 20 21 21 19 16 13 13 17 14 13 14 13 12 12 14 15 14 13 12 10
29 28 28 28 27 27 26 27 26 25 24 22 20 18 17 16 15 14 13 12 11 11 12 13 15 17 18 18 17 17 15 15 15 15 16 16 15 14 13 11 10 10 12 16 18 19 20 20 20 19 19 18 17 16 15 13 12 10 12 15 16 16 17 16 17 19 21 22 19 15 13 12 16 16 14 14 12 12 13 14 14 13 12 12 10
29 28 28 27 26 26 26 26 26 25 23 22 20 18 16 15 15 14 12 11 11 11 12 13 15 16 18 18 17 16 15 14 13 12 12 12 12 12 11 9 8 8 11 15 18 20 20 20 20 20 19 18 17 16 14 12 10 8 11 15 15 15 17 17 17 19 21 22 20 15 12 12 16 18 16 15 14 14 14 14 13 12 11 11 9
28 28 27 26 25 25 25 25 25 24 23 21 19 18 16 15 14 13 12 11 11 12 12 14 15 16 17 18 17 16 14 14 13 11 10 10 9 9 9 8 7 8 11 15 18 20 21 20 21 20 19 18 16 15 13 11 9 7 10 14 14 15 16 17 18 19 20 21 20 16 13 13 15 17 17 17 16 16 15 15 13 12 11 10 9
28 26 26 25 25 24 25 25 25 24 23 21 19 18 16 15 15 13 12 11 12 13 13 14 15 16 17 17 16 15 14 14 13 11 10 9 8 8 9 9 9 10 11 15 18 20 21 21 21 20 20 18 17 15 12 10 8 5 8 12 12 13 15 16 17 18 20 21 21 17 13 12 13 14 16 17 17 17 16 16 15 13 12 11 11
28 26 26 25 25 24 24 24 24 24 22 21 19 18 17 16 15 13 12 12 13 13 13 14 15 16 16 16 15 15 14 13 12 11 11 10 9 9 10 11 12 12 12 15 17 20 21 20 20 20 20 19 17 15 12 10 7 3 5 10 11 12 13 15 16 17 18 19 20 17 14 12 13 13 14 15 17 17 17 17 16 16 15 14 13
28 27 26 26 25 24 24 23 23 23 22 20 19 18 18 17 16 14 12 13 13 14 14 15 15 16 16 15 15 15 14 13 12 12 12 12 12 11 11 11 12 12 13 15 17 20 21 21 21 21 21 20 18 15 12 9 7 3 2 7 10 10 12 13 15 16 16 17 18 17 14 12 12 13 14 15 16 17 18 18 18 18 18 17 16
28 27 26 25 25 24 23 22 22 22 22 21 20 19 19 18 16 14 13 14 13 14 15 16 16 16 16 16 16 15 14 13 13 12 12 13 13 13 12 12 12 12 12 13 16 19 21 21 21 21 21 20 19 16 13 10 7 4 1 6 9 10 10 12 14 14 14 16 17 17 14 10 11 12 13 14 16 16 17 17 18 18 18 18 18
26 26 25 25 24 23 22 22 21 21 21 21 20 20 19 18 16 15 14 14 14 14 15 16 16 16 16 16 16 15 14 13 13 12 12 12 12 12 12 12 12 12 11 12 14 16 19 21 22 21 21 20 20 17 14 10 7 4 2 4 8 9 9 10 12 13 13 15 16 16 13 10 10 11 11 12 14 15 16 16 17 17 17 17 17
25 25 25 25 24 23 22 22 21 21 21 21 21 20 19 18 16 15 15 15 14 14 14 16 16 15 15 15 15 15 14 13 12 12 12 11 10 10 11 11 11 10 11 11 12 14 17 20 22 22 21 21 20 18 15 11 8 5 3 3 7 8 8 9 10 11 12 14 14 14 13 9 8 9 10 11 12 13 14 15 15 15 16 15 15
25 25 25 25 25 24 23 23 22 21 21 21 21 20 19 17 16 16 15 14 14 13 13 13 14 14 15 15 15 14 13 13 12 12 10 9 9 10 10 10 10 9 9 10 10 12 15 19 22 22 22 22 21 19 16 12 9 7 5 3 6 8 8 8 9 10 11 13 13 13 12 10 7 7 9 10 11 11 12 12 13 13 14 14 14
25 25 25 25 25 24 23 23 23 23 22 22 21 20 18 17 16 16 15 14 13 12 12 12 13 14 15 15 15 14 13 12 12 11 10 9 9 10 10 10 10 9 8 8 9 10 13 16 19 21 22 22 21 20 17 13 10 8 6 4 6 7 8 8 8 9 10 12 12 12 12 11 8 6 7 9 9 10 10 11 11 12 12 12 12
25 26 25 26 25 24 23 23 23 23 22 22 21 20 18 16 16 15 14 13 12 11 12 12 13 14 15 15 15 14 14 13 12 11 10 9 9 10 9 10 10 9 9 8 8 8 10 12 15 19 21 21 21 20 17 14 12 9 7 5 6 7 8 8 8 8 9 10 11 12 11 11 9 6 6 8 8 9 9 10 10 10 10 10 10
26 26 25 25 25 24 24 23 23 23 22 21 20 19 18 17 16 15 14 13 12 11 12 12 13 15 15 15 15 15 14 14 13 11 10 10 9 10 9 9 9 9 8 8 8 7 8 9 12 16 20 22 21 20 17 15 13 10 7 7 7 7 7 7 7 7 7 9 10 11 11 11 10 7 5 6 7 7 8 8 9 9 9 9 9
28 27 24 25 25 25 25 23 24 23 23 21 21 20 19 19 17 16 14 13 13 11 12 13 14 15 15 15 15 14 13 13 12 11 10 9 10 9 9 8 8 8 7 7 7 7 7 8 10 13 17 21 21 20 18 16 14 11 8 8 8 8 7 6 6 6 6 8 9 11 11 10 9 7 5 4 5 6 6 7 8 8 8 8 8
29 28 25 26 25 25 25 24 24 24 23 22 22 21 20 19 18 16 14 14 13 12 11 12 14 14 14 14 14 13 13 12 11 10 10 9 9 9 8 7 7 7 6 6 6 6 6 7 8 10 13 18 22 21 18 17 15 12 9 8 8 8 7 6 5 5 6 7 8 10 10 9 8 6 4 3 4 5 6 6 6 7 7 7 7
31 29 27 27 25 25 24 24 24 24 23 22 22 21 20 19 18 17 15 15 14 12 12 13 14 13 14 14 13 13 13 13 12 11 10 9 8 8 8 7 6 6 6 6 5 6 6 6 7 9 11 15 21 21 19 19 16 12 10 9 8 8 7 6 5 4 5 6 7 8 7 7 7 5 4 2 4 5 6 5 5 6 6 6 7
31 29 28 28 26 24 23 24 23 23 23 21 21 20 20 19 18 17 16 15 14 14 14 14 14 13 14 13 13 13 13 13 12 11 10 9 8 8 8 7 7 6 6 6 5 5 5 6 7 9 11 14 19 20 19 20 17 14 12 10 9 8 6 5 4 4 3 4 6 6 5 5 5 4 3 2 3 6 6 5 5 5 5 5 6
31 29 29 27 25 23 22 23 23 23 21 19 19 19 19 18 18 17 16 16 15 15 15 15 14 13 13 12 12 12 12 12 11 11 10 9 9 8 8 8 7 7 7 7 6 6 6 7 8 9 12 14 17 18 19 20 17 15 13 11 10 8 5 4 4 3 3 3 4 4 4 4 4 4 3 2 2 5 6 5 5 5 5 5 5
31 30 29 26 25 24 23 23 22 22 20 19 19 18 18 18 18 17 17 17 16 17 17 15 14 13 12 11 10 9 9 11 10 10 10 10 9 8 8 9 8 8 7 7 7 7 7 8 9 10 12 14 16 16 18 19 17 15 13 11 9 7 4 4 4 3 2 2 2 2 3 4 4 4 3 2 1 3 5 5 5 5 5 4 4
30 29 28 25 25 24 23 22 21 20 19 19 19 18 18 18 19 18 17 17 17 18 17 15 14 12 10 9 8 7 8 9 9 9 9 9 8 8 8 8 8 8 8 7 8 8 8 9 9 10 11 12 13 14 16 17 15 14 13 11 8 6 4 4 4 3 1 1 2 2 2 3 3 3 3 2 1 1 3 5 6 6 5 5 4
29 29 27 25 24 23 23 22 20 19 18 19 19 18 18 18 19 18 18 18 18 19 18 15 12 11 9 8 8 7 7 8 8 8 7 7 7 7 8 8 8 8 8 8 8 8 9 10 10 10 10 10 11 11 12 13 13 13 13 11 9 7 5 5 5 4 3 2 1 2 3 3 3 3 3 2 1 1 1 5 7 6 6 5 4
28 28 27 25 24 24 23 21 20 19 19 19 19 19 18 18 18 18 18 18 18 18 17 14 12 11 9 7 8 8 7 7 8 7 7 6 5 6 7 7 8 8 8 8 7 7 8 9 10 10 10 10 10 10 10 10 10 11 12 12 10 9 7 7 7 6 4 3 1 2 3 3 3 2 2 2 2 1 1 4 7 6 6 5 4
29 27 26 24 23 24 23 21 21 20 20 20 20 20 19 18 18 18 17 17 17 16 15 13 12 12 10 8 8 8 8 7 8 8 7 5 4 5 6 7 8 8 7 7 6 6 6 7 8 9 10 10 10 9 9 8 8 8 9 9 9 8 8 9 9 7 5 3 2 0 1 1 1 1 1 2 2 2 1 3 5 5 5 3 3
28 26 25 24 23 23 22 21 22 22 22 21 20 20 18 18 17 17 17 16 15 15 14 13 12 12 11 9 8 8 8 7 7 8 7 5 4 3 4 5 6 6 6 6 6 5 5 6 7 7 9 10 9 8 8 7 6 5 5 6 7 8 9 11 10 8 6 4 3 3 2 2 1 0 1 2 2 2 2 3 5 4 2 1 1
28 24 23 23 22 21 21 21 23 24 22 21 20 18 18 17 17 17 16 15 15 14 13 12 12 12 11 10 9 9 7 7 7 6 6 4 4 3 4 4 4 4 5 5 5 4 5 5 6 7 9 10 8 7 7 6 6 5 3 4 6 8 10 12 11 9 6 4 4 4 4 3 2 1 2 3 3 4 3 4 6 4 2 3 5
26 23 22 23 22 21 22 23 24 24 21 20 19 17 17 17 16 17 16 15 14 13 12 13 13 12 10 10 10 9 7 6 6 6 5 4 4 4 4 5 4 3 3 4 5 5 6 5 6 8 10 10 8 7 7 6 6 6 4 4 6 7 9 13 12 10 7 6 6 6 5 3 3 3 3 3 4 5 5 5 7 6 4 6 9
24 23 23 23 22 21 22 24 25 23 20 19 18 17 17 17 16 16 16 15 14 13 13 13 13 11 10 10 9 8 7 6 5 5 6 5 5 5 5 5 4 3 3 4 5 6 6 5 5 7 9 10 8 8 7 6 7 7 6 5 5 6 10 13 11 9 9 8 8 7 6 4 5 5 5 5 5 5 5 6 8 8 8 8 9
25 23 23 23 21 21 22 24 25 22 20 19 18 18 17 17 16 16 16 15 14 14 13 13 12 11 10 10 9 8 7 6 5 6 6 6 7 7 6 6 5 4 4 4 5 6 7 6 6 7 8 8 8 8 8 7 6 7 7 5 4 6 9 11 9 9 9 9 8 8 7 7 6 7 6 6 6 6 6 6 7 8 9 8 7
25 23 23 23 22 22 24 24 23 21 20 19 19 18 17 17 16 15 15 15 14 13 13 13 13 11 10 10 9 7 7 6 6 6 7 8 9 8 7 6 6 6 6 6 5 6 7 6 7 7 7 7 7 8 7 7 6 7 7 6 4 5 8 9 9 9 9 9 9 9 8 8 7 7 7 7 7 7 7 6 6 6 6 7 6
21 21 21 21 22 23 24 24 22 21 21 20 19 19 18 18 17 15 15 13 13 13 13 13 12 11 10 9 8 7 7 7 6 7 7 8 9 9 7 6 6 6 6 6 5 6 7 7 7 7 8 7 6 7 6 6 6 6 6 6 5 5 7 9 10 9 9 10 11 10 8 7 7 7 7 7 7 7 6 5 5 4 4 4 3
15 17 18 19 21 23 24 23 22 21 22 21 20 20 20 19 17 16 15 14 14 14 13 12 11 10 9 8 8 7 7 7 6 6 6 7 9 8 7 6 6 6 6 6 6 7 8 7 7 7 8 7 6 6 6 7 7 6 6 6 6 5 7 10 10 11 11 10 9 9 9 8 8 7 7 7 7 7 6 5 4 3 2 2 1
9 14 16 17 20 22 24 24 23 22 22 22 22 23 22 20 19 17 17 16 15 14 13 11 10 8 7 7 7 7 6 6 5 4 5 5 7 7 6 6 6 6 6 6 6 7 8 8 7 7 7 8 8 7 6 6 7 7 7 7 7 6 7 9 10 10 9 7 8 9 9 8 8 7 7 7 7 6 6 5 4 3 2 1 1
12 18 19 18 21 23 24 24 24 23 23 24 24 24 23 22 20 19 18 17 16 15 13 11 10 9 8 8 7 7 6 6 5 4 3 3 5 5 5 5 5 6 6 6 6 7 9 9 9 9 8 7 8 8 7 6 6 7 8 8 8 8 9 9 8 8 7 7 9 9 8 8 8 7 7 7 6 5 5 4 3 3 2 1 1
26 28 26 23 23 25 25 24 24 24 24 24 24 23 22 21 20 19 17 16 15 13 12 11 11 10 9 8 7 6 6 6 5 4 4 4 5 4 4 4 5 6 7 7 7 8 9 10 10 10 9 7 7 8 8 8 8 7 7 8 9 10 10 8 6 6 7 7 8 7 7 8 8 7 7 6 5 5 5 3 2 3 2 1 1
33 33 29 27 27 28 27 26 24 25 24 23 23 22 21 20 18 16 15 15 14 13 12 11 11 10 9 8 8 7 7 6 6 5 5 5 5 4 4 4 5 6 6 7 8 8 9 9 9 10 9 9 8 9 10 10 9 8 8 8 9 11 10 8 7 6 6 6 6 6 7 7 8 8 7 6 6 6 6 4 3 3 1 1 1
33 33 30 30 30 31 30 29 26 25 25 23 21 20 20 18 16 14 14 14 14 13 13 12 11 10 9 9 9 9 8 7 6 6 5 5 5 5 5 6 6 6 6 7 7 7 8 8 9 9 9 9 9 10 10 9 9 9 10 9 9 10 9 9 9 7 6 5 4 5 6 6 7 6 6 7 7 6 6 4 4 4 3 2 1
33 34 32 32 32 32 32 30 27 26 25 23 22 21 20 19 18 17 16 15 15 15 14 13 12 10 8 9 10 10 9 8 7 5 5 5 5 5 6 7 7 6 7 7 7 7 7 8 9 9 9 8 8 9 9 9 10 10 11 9 8 8 8 11 11 7 6 5 3 4 5 5 5 4 7 8 7 6 5 5 5 5 4 2 0
32 34 34 34 33 33 33 30 28 26 25 24 23 22 20 21 21 20 19 18 17 15 13 11 10 9 8 9 9 9 8 7 7 7 7 6 6 6 7 7 8 8 8 8 8 8 8 8 9 9 9 8 8 9 9 9 10 11 12 9 6 5 7 11 12 8 6 5 3 4 5 5 5 6 8 8 6 7 6 5 4 4 3 2 1
31 34 36 36 34 33 32 30 28 27 26 25 24 23 21 22 22 20 19 18 16 13 11 9 8 8 8 9 8 7 6 5 5 6 7 7 7 7 7 8 8 8 8 8 8 8 8 8 8 8 9 9 9 9 9 9 10 11 13 12 9 5 5 10 12 10 10 8 6 6 7 8 9 10 10 9 7 6 5 4 4 3 3 3 3
31 34 36 35 33 31 31 30 28 27 26 25 25 24 23 23 22 20 18 15 12 11 10 9 8 8 8 8 7 6 5 4 3 3 4 7 9 8 8 8 9 9 8 8 7 8 8 8 8 9 10 11 9 9 9 10 9 10 12 13 11 8 6 9 11 10 11 13 12 11 10 10 10 12 12 10 8 6 5 5 5 5 4 4 4
30 33 34 32 30 30 30 29 28 27 26 24 25 25 23 22 21 20 18 15 11 10 10 11 10 9 8 7 6 5 5 4 2 1 3 6 8 9 8 8 9 9 8 7 6 6 7 7 8 9 10 11 10 10 10 10 8 9 11 12 12 10 7 10 11 10 10 14 15 16 15 13 13 13 12 10 9 9 7 6 6 5 5 4 4
29 32 31 30 30 30 30 30 28 27 26 24 25 25 23 22 21 20 18 16 13 12 13 14 12 10 8 6 5 4 3 2 1 1 2 4 6 8 8 8 8 7 7 7 6 6 6 7 8 8 8 9 10 11 10 10 8 8 10 12 14 13 10 12 14 12 12 13 16 19 18 16 15 15 12 10 10 9 8 6 5 4 4 3 2
29 31 31 30 30 31 31 30 28 27 26 25 25 25 24 23 21 19 18 17 16 15 16 16 13 11 8 6 4 3 3 2 2 2 1 1 2 5 8 8 7 6 6 7 7 6 6 7 8 7 7 8 9 10 10 10 9 9 11 12 14 14 11 12 14 14 15 14 17 22 20 16 15 15 13 10 9 8 7 6 4 2 1 1 1
Wind_Direction
169 168 168 166 170 168 166 166 165 161 156 155 152 149 145 141 138 134 131 127 125 124 127 137 144 147 149 150 151 153 154 154 151 145 140 135 135 136 139 143 135 125 115 109 108 107 108 106 101 101 103 105 107 108 104 99 96 93 90 84 81 78 72 64 59 59 62 74 88 93 96 95 91 93 97 100 104 107 112 114 110 100 92 92 90
168 169 168 168 171 168 168 166 166 162 157 157 155 152 148 145 141 137 133 129 127 124 124 133 145 149 150 150 151 153 153 152 150 146 141 139 139 142 148 147 137 126 115 110 109 108 109 108 105 106 108 110 112 110 106 103 100 96 91 85 80 76 74 67 60 59 58 62 75 94 103 99 95 96 99 103 105 108 112 112 108 98 93 94 93
168 168 168 168 170 168 168 167 166 163 159 159 157 155 151 148 145 141 136 132 129 126 123 127 141 149 150 149 150 151 151 150 147 147 142 141 144 148 151 146 138 126 115 107 104 109 113 113 111 112 113 113 112 108 105 103 101 97 92 86 80 74 72 67 62 60 58 56 61 91 107 105 103 102 104 107 107 109 111 111 107 100 97 94 91
169 167 168 167 169 168 168 167 166 163 161 160 159 158 154 152 148 145 139 135 132 129 126 124 137 147 150 148 147 147 147 145 142 143 142 145 147 150 150 143 135 126 115 104 101 113 119 118 118 117 118 113 110 107 104 101 96 96 95 88 78 71 68 64 60 59 56 53 52 73 97 108 110 108 111 113 112 114 115 115 114 110 106 100 94
168 167 167 166 167 167 167 167 167 165 163 162 162 160 157 155 151 148 142 137 134 132 129 126 134 144 149 148 146 144 145 143 138 138 141 142 137 142 146 140 134 127 119 106 105 119 123 124 124 121 119 114 111 108 103 97 92 90 90 87 81 71 64 57 55 56 53 51 48 57 79 101 111 111 116 121 121 121 123 125 125 123 119 112 105
167 167 167 166 166 166 167 167 167 166 165 165 164 162 160 158 154 150 144 139 136 134 132 131 134 143 149 149 147 143 142 143 141 142 143 138 135 145 147 136 131 128 121 111 112 122 126 127 125 122 119 116 112 106 100 96 92 89 88 85 82 73 65 56 50 53 51 47 46 50 65 84 98 104 114 126 129 127 128 132 134 133 128 121 117
166 166 166 166 165 165 167 167 168 168 167 166 164 163 162 160 156 150 145 141 138 138 136 136 136 143 147 148 147 139 138 144 143 142 141 141 145 154 150 137 131 128 124 116 117 123 126 126 125 123 121 118 112 106 101 95 92 91 92 86 79 73 71 65 52 51 48 43 41 45 53 74 93 100 108 120 126 127 128 137 143 143 139 134 132
165 165 165 166 165 165 166 168 169 169 168 166 165 164 163 161 156 150 147 145 140 140 138 139 139 143 145 146 143 136 143 150 145 142 143 146 151 155 152 147 138 133 128 121 122 125 126 126 126 126 123 119 114 108 102 98 95 92 89 81 74 71 70 66 56 51 46 40 38 44 48 70 95 98 104 115 116 116 123 139 148 149 145 141 142
165 164 164 165 165 164 166 169 170 170 169 167 167 165 163 159 155 151 150 149 143 141 139 139 139 142 143 142 140 138 146 147 142 141 143 148 154 156 154 152 144 142 131 121 124 127 127 128 128 127 123 120 116 110 105 102 100 95 86 78 74 73 70 64 59 54 47 39 35 44 49 61 84 87 95 106 106 109 120 135 145 146 143 143 145
164 162 164 165 164 164 167 170 171 171 170 168 168 166 163 157 154 154 154 151 145 143 139 138 137 139 142 141 142 142 142 137 134 136 141 147 151 150 149 152 152 152 134 121 126 131 130 131 130 128 126 122 118 113 110 106 102 99 88 82 77 75 71 65 61 55 48 40 36 43 46 53 70 78 85 90 93 101 114 125 135 142 138 140 143
161 160 161 163 164 165 168 171 173 172 171 169 168 165 161 157 157 158 157 154 147 144 141 138 135 136 140 143 144 146 142 137 137 139 143 145 144 143 146 150 149 152 140 126 130 136 135 135 134 131 129 125 121 117 115 110 106 103 91 86 79 76 71 65 60 54 48 43 39 41 44 49 61 73 80 82 85 90 97 105 118 133 132 132 134
158 157 157 161 164 166 169 172 173 172 171 169 168 165 162 161 162 163 161 158 149 144 143 139 136 135 137 139 142 145 145 143 144 145 147 145 142 143 139 135 132 136 136 131 134 139 139 139 138 134 132 128 125 122 119 115 111 106 89 86 82 77 70 65 60 53 51 47 41 41 44 47 56 71 78 80 82 84 87 93 102 114 120 122 122
154 155 157 161 165 167 169 171 172 171 171 170 169 167 166 166 167 167 165 160 150 144 144 142 138 136 135 136 138 141 142 142 143 142 140 137 134 129 123 122 123 125 128 132 137 142 142 142 141 137 135 131 130 127 124 124 123 120 88 85 81 75 70 66 60 54 53 49 42 40 40 42 51 64 73 80 84 87 89 90 93 98 103 108 109
152 155 158 162 165 168 169 168 168 170 171 171 171 170 170 172 171 170 167 159 150 145 145 143 140 138 137 138 138 138 139 140 140 137 133 129 124 118 115 116 118 121 124 128 136 145 146 145 145 142 139 136 135 134 133 136 137 142 100 85 81 76 70 67 62 56 52 47 42 38 37 43 49 56 62 70 77 84 88 88 87 89 92 95 96
152 155 159 162 165 165 165 165 165 168 171 172 173 174 174 175 173 170 165 157 150 147 146 145 143 140 140 140 139 140 140 140 138 135 130 123 117 112 110 111 114 117 123 123 130 144 150 149 148 147 143 142 141 140 142 148 153 165 140 91 86 80 71 66 64 57 48 43 41 36 36 47 55 59 62 65 71 75 81 83 84 86 88 90 91
153 155 158 160 161 161 162 162 164 168 171 174 175 176 177 175 173 168 162 157 153 150 147 149 148 144 144 142 141 141 142 140 136 133 127 120 111 108 109 111 113 115 121 123 124 135 150 153 151 151 148 146 145 145 150 158 164 175 182 99 92 86 73 66 64 56 46 38 37 35 35 49 59 61 67 69 73 76 79 82 83 85 87 89 90
154 157 158 159 159 158 160 160 163 168 171 173 176 177 177 175 170 166 161 160 157 152 150 151 151 148 148 146 144 143 143 140 137 132 125 117 108 110 113 114 116 118 121 125 126 127 142 156 157 155 153 151 150 150 154 164 173 179 194 117 98 95 81 70 63 53 42 34 33 34 34 50 66 61 66 71 74 78 81 84 85 86 88 88 88
157 160 161 160 158 157 159 159 163 170 172 174 177 177 175 172 168 164 162 162 159 155 152 150 149 147 148 148 148 145 143 142 138 133 125 115 109 110 110 111 116 120 125 127 130 128 133 152 161 160 158 158 156 155 159 169 178 183 194 145 103 100 94 80 65 51 39 31 33 35 36 49 72 68 64 72 73 77 82 86 87 87 88 88 86
160 164 164 161 158 157 159 161 167 170 173 175 176 174 173 171 166 164 163 164 160 155 153 151 149 145 147 149 149 146 142 143 140 136 128 120 117 115 112 115 118 121 128 130 131 130 130 142 158 164 164 164 161 160 162 172 180 184 190 154 113 106 102 91 70 54 40 32 33 35 37 44 69 84 70 73 77 78 81 84 87 90 90 89 89
164 167 166 162 158 159 160 164 169 169 172 174 173 171 171 170 165 165 164 164 159 157 159 156 152 149 151 150 149 150 147 148 146 141 134 129 128 124 122 121 121 122 125 132 131 128 129 135 149 162 169 169 167 165 167 175 180 186 188 152 127 117 105 96 76 60 43 36 36 36 35 38 53 81 84 76 79 82 82 84 88 90 91 92 93
167 169 166 162 160 163 163 165 170 170 171 172 171 170 170 168 165 166 165 166 163 163 165 160 157 154 154 152 151 153 151 151 150 147 140 137 134 130 130 126 125 126 125 130 129 125 127 132 141 155 168 174 174 171 173 178 181 188 186 151 136 128 110 97 78 61 43 35 38 37 35 35 40 61 90 85 84 89 87 88 90 89 90 92 93
170 169 165 165 165 168 168 168 171 171 172 171 171 171 170 168 166 168 167 169 170 171 168 164 164 160 157 156 156 155 152 152 151 149 145 142 138 134 136 134 132 131 130 127 121 124 128 135 142 148 163 175 180 176 177 182 182 190 187 156 141 134 122 104 80 61 44 38 40 37 32 35 36 48 76 97 99 98 96 94 94 94 95 95 95
171 169 168 171 172 173 173 173 172 172 174 174 174 174 172 170 169 170 170 172 176 175 168 167 170 167 163 161 160 156 153 151 149 150 148 144 141 143 144 141 140 133 132 128 121 127 133 140 146 149 155 169 180 179 180 184 182 187 187 166 150 139 133 117 89 66 50 44 37 26 24 31 36 42 55 98 125 123 112 107 104 103 105 103 102
173 172 173 174 177 177 176 176 174 173 176 177 177 177 174 172 171 172 174 176 179 174 169 169 169 169 167 163 162 158 155 153 151 150 146 147 148 152 151 143 142 135 133 134 133 136 143 148 148 155 153 162 176 179 182 186 182 183 186 176 162 150 144 128 100 80 59 44 23 13 16 23 32 35 34 82 140 150 136 126 120 114 113 109 107
173 175 177 176 178 179 178 177 176 178 181 181 180 180 179 176 174 175 178 180 180 174 171 172 169 169 168 165 166 163 159 155 151 148 145 151 152 148 143 139 139 137 139 140 141 144 147 152 150 157 157 159 170 177 183 186 182 180 185 184 175 168 157 140 116 106 83 44 14 8 18 19 26 31 24 54 125 157 157 144 137 128 122 115 111
176 178 179 177 178 179 180 179 178 181 184 184 184 186 185 180 179 180 183 183 181 176 174 175 173 172 172 171 169 165 162 156 148 148 147 147 143 137 132 133 137 137 140 140 141 147 146 148 152 157 159 160 166 175 182 185 183 180 184 188 186 183 170 159 151 134 114 59 21 11 26 26 23 22 15 19 101 157 170 163 155 147 136 128 123
180 181 181 178 179 181 182 181 181 184 186 188 191 193 189 185 185 186 187 186 182 179 179 179 177 176 176 174 170 166 163 159 152 148 144 142 138 135 131 132 138 140 141 141 142 147 150 153 158 160 159 160 164 175 183 185 187 183 182 185 187 189 183 183 178 153 123 72 47 31 33 32 30 20 14 2 31 163 181 182 172 164 153 147 141
183 183 182 179 180 183 184 183 183 187 189 192 196 197 194 190 190 191 189 186 185 182 181 182 181 176 175 175 173 166 160 159 154 146 144 145 143 140 138 141 148 151 152 153 150 150 156 163 167 165 163 162 164 174 184 188 193 192 188 189 194 200 204 209 197 176 169 93 65 32 22 27 32 31 32 25 13 168 187 187 181 175 168 165 161
185 183 183 182 182 186 185 184 186 190 193 195 199 200 198 195 193 193 189 187 186 183 182 186 183 175 172 175 177 168 160 160 153 150 153 150 148 148 147 151 158 163 163 161 157 158 164 170 175 173 169 169 167 171 178 185 195 201 202 205 213 221 225 229 221 203 193 154 93 358 355 4 16 35 46 56 106 119 166 179 178 178 177 176 176
186 183 185 183 184 188 187 187 188 193 198 199 201 202 202 199 195 193 191 190 187 183 183 184 180 174 171 169 172 168 163 163 159 163 166 157 154 156 154 151 154 160 162 162 159 163 170 176 182 183 182 179 173 171 168 175 190 201 208 211 217 224 229 235 231 217 203 172 143 344 337 344 357 26 46 81 131 149 139 168 174 175 178 182 185
186 184 185 185 186 189 189 188 192 197 201 202 202 203 205 201 196 194 192 190 186 184 182 180 179 179 174 168 168 166 164 167 168 174 177 171 168 165 161 154 151 153 154 159 159 160 169 177 185 192 197 192 183 178 169 172 186 196 206 211 216 225 234 235 230 219 208 185 157 182 277 298 319 359 42 94 123 165 121 147 166 166 167 180 195
186 184 185 189 188 189 189 188 193 199 203 204 202 203 203 199 196 194 192 188 183 186 186 184 186 186 183 183 180 175 174 176 176 180 183 180 179 176 173 164 161 162 159 167 169 167 173 181 192 200 203 196 187 182 177 175 184 195 213 224 225 234 241 231 220 212 205 190 165 163 191 211 218 322 38 61 88 134 105 123 143 136 143 135 156
184 185 188 191 190 189 189 189 193 200 204 204 203 203 200 196 195 192 190 186 182 184 187 189 194 193 192 196 196 193 191 190 189 188 189 190 193 196 192 184 178 178 180 187 186 184 185 188 197 198 195 192 188 187 185 181 181 189 216 237 230 237 234 217 206 204 201 187 169 165 182 190 177 103 69 63 90 116 93 105 128 131 142 83 93
180 186 192 192 192 190 186 188 194 199 203 203 202 200 195 193 194 190 188 189 185 184 187 190 195 197 199 204 206 205 206 204 202 199 198 203 211 218 216 208 205 199 198 198 195 192 187 186 192 192 190 191 194 198 199 200 200 203 218 234 231 236 220 203 197 196 189 178 170 171 181 173 142 114 98 93 97 100 83 98 124 140 147 99 92
180 186 193 193 193 189 186 187 192 196 199 199 199 195 191 191 191 188 188 190 188 188 189 191 194 197 201 208 215 217 221 223 218 210 208 216 227 234 232 225 226 229 223 209 202 190 182 179 179 186 194 194 197 206 210 214 218 220 227 239 240 232 207 199 200 193 184 177 171 172 173 157 140 130 120 113 107 98 88 103 120 131 133 109 96
182 187 190 192 192 188 187 188 189 190 191 193 194 193 191 190 188 186 189 190 189 189 190 191 194 198 203 212 221 225 227 228 225 218 218 231 240 241 238 234 233 236 231 222 213 189 176 179 181 183 191 193 196 205 210 209 216 226 231 240 240 221 205 205 208 198 187 176 169 168 163 152 145 140 133 123 115 107 96 101 112 119 124 117 115
184 189 189 188 187 187 187 188 188 185 186 188 190 192 189 187 186 184 186 187 187 188 189 191 196 200 206 214 220 222 225 228 233 235 236 241 245 243 237 232 230 226 220 221 218 191 175 180 188 184 181 190 197 200 202 201 210 225 227 226 221 212 209 209 204 195 188 174 166 164 158 151 146 144 140 130 119 113 106 104 106 107 109 113 123
188 193 193 189 186 188 188 187 187 184 184 185 187 190 187 185 186 184 183 182 184 188 190 192 195 198 204 214 221 222 229 234 237 245 249 248 246 241 231 223 223 222 220 225 216 192 182 182 188 187 181 186 197 198 197 202 207 210 209 209 206 201 200 200 195 190 187 176 164 158 157 154 150 148 144 136 130 125 120 116 110 104 101 107 125
195 198 197 194 191 191 189 185 185 184 183 183 186 188 188 187 186 184 184 184 187 191 192 192 192 196 202 212 223 224 227 230 231 243 251 250 245 238 224 212 218 223 226 228 210 191 186 183 185 190 187 184 190 196 198 202 203 196 194 196 195 193 193 192 191 190 189 179 166 164 166 165 158 156 154 149 148 145 142 138 135 140 140 131 147
211 206 200 199 201 198 191 186 185 184 183 184 187 189 189 188 186 186 186 186 189 190 190 190 190 192 197 207 215 217 216 210 207 219 232 238 237 231 221 213 216 220 220 217 203 192 187 185 185 187 190 189 188 192 195 202 202 194 191 189 190 196 197 192 190 190 189 185 183 178 175 175 170 168 168 166 162 155 155 157 158 167 174 172 164
199 201 200 199 208 206 195 187 184 185 186 187 189 191 190 187 188 188 186 187 189 190 189 188 186 185 189 193 196 197 193 189 192 189 184 198 205 210 215 212 209 209 208 204 197 191 185 184 187 185 188 194 193 190 189 198 203 194 186 185 186 189 193 191 190 189 180 191 198 182 176 182 179 177 178 177 169 161 173 178 175 189 198 227 291
184 191 190 189 204 209 199 190 185 186 187 189 191 191 188 188 190 189 187 189 188 186 183 178 177 178 179 177 172 168 167 175 178 154 142 153 162 174 185 184 185 192 200 201 194 188 184 184 188 189 187 189 198 197 193 197 202 203 200 194 186 181 184 184 181 181 175 192 203 181 177 185 186 192 192 188 181 179 204 212 202 211 222 262 294
185 189 183 178 194 203 199 192 187 187 188 188 190 187 186 190 191 189 188 186 181 174 168 166 166 165 165 164 159 159 162 163 156 143 138 142 149 159 168 167 171 178 187 195 192 184 183 184 186 190 191 189 196 200 202 203 200 204 207 201 191 179 175 178 178 179 181 200 209 189 192 196 201 206 192 191 201 205 220 222 196 197 187 198 222
188 189 181 177 188 196 198 191 187 190 187 185 185 183 186 189 187 186 185 180 173 168 163 159 155 153 157 160 160 163 164 159 153 145 139 140 146 151 163 171 174 176 176 181 187 184 183 187 187 189 195 199 201 201 203 202 194 201 203 195 192 182 172 182 189 190 192 206 215 207 209 206 211 206 171 184 209 209 208 184 156 161 156 177 209
190 191 185 182 187 193 196 191 188 189 186 184 181 181 186 186 182 181 180 176 174 174 169 160 154 156 165 167 163 162 163 161 158 157 151 146 146 149 160 166 167 173 175 176 183 187 187 191 191 192 199 204 206 206 207 198 188 199 205 193 183 185 190 193 190 190 196 199 204 206 204 193 200 182 150 167 180 166 160 150 146 154 162 183 208
193 194 189 187 188 189 191 190 188 186 186 183 179 182 185 184 183 183 181 180 179 177 170 161 160 166 176 179 171 165 165 161 159 164 166 165 161 157 160 162 164 170 178 185 189 195 196 192 194 197 201 202 201 205 212 206 196 197 204 204 193 197 211 201 187 176 175 180 181 171 162 150 146 138 133 137 136 129 131 138 150 160 167 173 124
193 195 192 190 188 187 187 187 187 185 185 183 181 183 184 184 187 187 186 184 181 173 161 160 168 171 178 184 181 172 166 158 154 161 169 177 179 173 169 166 166 166 172 184 190 198 200 195 196 197 198 199 199 203 209 214 210 205 209 216 221 231 231 210 200 188 168 156 153 147 138 136 134 125 117 107 100 107 124 139 152 158 159 149 118
194 196 196 192 187 185 185 185 186 185 185 183 183 186 186 188 188 188 189 186 179 168 161 167 175 178 181 183 184 177 167 156 156 160 168 180 182 181 180 174 170 167 170 178 184 194 200 199 199 196 194 196 200 203 207 213 215 213 215 218 221 233 240 220 217 212 179 154 143 142 140 141 133 117 108 102 98 98 109 130 141 142 138 124 107
196 198 198 193 186 184 185 185 185 185 184 182 185 187 189 192 190 187 186 181 178 174 171 175 178 182 183 181 184 182 176 171 166 146 160 178 182 181 182 179 175 172 172 174 174 185 197 201 202 202 201 201 203 202 204 211 214 216 218 216 216 224 226 211 209 213 194 166 153 151 150 149 136 119 110 103 96 90 87 98 108 113 111 104 97
198 199 198 193 186 186 185 185 185 184 183 183 185 187 190 195 193 188 183 177 180 183 178 177 176 176 179 183 193 200 206 212 228 230 173 180 185 185 185 184 184 182 178 176 175 183 193 196 201 208 210 210 210 208 208 211 213 218 219 218 218 218 213 203 200 201 197 183 165 158 156 154 143 129 121 108 93 86 79 82 92 101 98 90 89
198 199 200 195 189 188 186 185 186 185 183 183 186 188 190 195 194 189 185 181 185 187 179 174 171 170 175 187 206 222 228 255 288 274 270 258 206 191 190 189 192 196 188 180 182 190 193 194 198 202 205 206 207 211 213 213 212 214 219 222 222 224 224 214 208 202 196 189 170 159 158 159 148 134 130 121 103 88 79 79 88 109 108 57 50